Weather History for New Bern, NC

Change the Weather History Date:

Sunday, March 2, 2014

  Actual Average Record
Temperature  
Mean Temperature 54 °F 50 °F  
Max Temperature 73 °F 61 °F 82 °F (1976)
Min Temperature 34 °F 39 °F 19 °F (1967)
Degree Days  
Heating Degree Days 11 15  
Month to date heating degree days 30 31  
Since 1 July heating degree days 2104 2177  
Cooling Degree Days 0 0  
Month to date cooling degree days 0 0  
Year to date cooling degree days 5 3  
Growing Degree Days 4 (Base 50)    
Moisture  
Dew Point 39 °F    
Average Humidity 61    
Maximum Humidity 92    
Minimum Humidity 29    
Precipitation  
Precipitation 0.00 in 0.14 in 3.28 in (1994)
Month to date precipitation 0.00 0.28  
Year to date precipitation 6.53 7.96  
Snow  
Snow 0.00 in - - ()
Month to date snowfall 0.0  
Since 1 July snowfall 14.0  
Snow Depth 0.00 in    
Sea Level Pressure  
Sea Level Pressure 30.13 in    
Wind  
Wind Speed 4 mph (SW)    
Max Wind Speed 15 mph    
Max Gust Speed 18 mph    
Visibility 10 miles    
Events      
T = Trace of Precipitation, MM = Missing Value Source: NWS Daily Summary

Daily Weather History Graph

Daily Weather History Graph

Search for Another Location

Airport:

Trip Planner

Search our weather history database for the weather conditions in past years. The results will help you decide how hot, cold, wet, or windy it might be!

Date:

Astronomy

Mar. 02, 2014 Rise Set
Actual Time 6:36 AM EST 6:04 PM EST
Civil Twilight 6:10 AM EST 6:30 PM EST
Nautical Twilight 5:41 AM EST 6:59 PM EST
Astronomical Twilight 5:12 AM EST 7:28 PM EST
Moon 7:10 AM EST (3/2) 7:52 PM EST (3/2)
Length of Visible Light 12h 19m
Length of Day
11h 28m
Waxing Crescent, 3% of the Moon is Illuminated
Mar 2
Waxing Crescent
Mar 8
First Quarter
Mar 16
Full
Mar 23
Last Quarter
Mar 30
New

Hourly Weather History & Observations

Time (EST) Temp. Dew Point Humidity Pressure Visibility Wind Dir Wind Speed Gust Speed Precip Events Conditions
12:54 AM 37.9 °F 34.0 °F 86% 30.24 in 10.0 mi Calm Calm - N/A   Clear
1:54 AM 37.0 °F 33.1 °F 86% 30.24 in 10.0 mi Calm Calm - N/A   Clear
2:54 AM 37.9 °F 34.0 °F 86% 30.22 in 10.0 mi Calm Calm - N/A   Clear
3:54 AM 39.0 °F 37.0 °F 93% 30.22 in 10.0 mi Calm Calm - N/A   Mostly Cloudy
4:54 AM 37.0 °F 34.0 °F 89% 30.22 in 9.0 mi Calm Calm - N/A   Clear
5:54 AM 37.0 °F 34.0 °F 89% 30.22 in 7.0 mi Calm Calm - N/A   Clear
6:54 AM 35.1 °F 32.0 °F 89% 30.22 in 9.0 mi Calm Calm - N/A   Clear
7:54 AM 45.0 °F 39.9 °F 82% 30.23 in 10.0 mi Calm Calm - N/A   Clear
8:54 AM 53.1 °F 41.0 °F 64% 30.23 in 10.0 mi Calm Calm - N/A   Clear
9:54 AM 60.1 °F 39.9 °F 47% 30.22 in 10.0 mi WNW 3.5 mph - N/A   Clear
10:54 AM 64.9 °F 39.0 °F 39% 30.20 in 10.0 mi Variable 3.5 mph - N/A   Clear
11:54 AM 68.0 °F 39.0 °F 35% 30.17 in 10.0 mi Variable 6.9 mph - N/A   Clear
12:54 PM 70.0 °F 39.0 °F 32% 30.12 in 10.0 mi Variable 6.9 mph - N/A   Clear
1:54 PM 73.0 °F 39.0 °F 29% 30.08 in 10.0 mi SSW 6.9 mph - N/A   Clear
2:54 PM 73.0 °F 39.0 °F 29% 30.05 in 10.0 mi WSW 8.1 mph - N/A   Clear
3:54 PM 72.0 °F 39.9 °F 31% 30.03 in 10.0 mi South 8.1 mph - N/A   Clear
4:54 PM 69.1 °F 42.1 °F 38% 30.02 in 10.0 mi South 8.1 mph 18.4 mph N/A   Clear
5:54 PM 64.0 °F 42.1 °F 45% 30.03 in 10.0 mi South 9.2 mph - N/A   Clear
6:54 PM 59.0 °F 42.1 °F 53% 30.03 in 10.0 mi SSW 8.1 mph - N/A   Clear
7:54 PM 57.0 °F 44.1 °F 62% 30.03 in 10.0 mi SSW 8.1 mph - N/A   Clear
8:54 PM 55.0 °F 44.1 °F 67% 30.01 in 10.0 mi SSW 8.1 mph - N/A   Clear
9:54 PM 55.0 °F 43.0 °F 64% 30.02 in 10.0 mi SW 4.6 mph - N/A   Clear
10:54 PM 55.0 °F 42.1 °F 62% 29.99 in 10.0 mi SSW 8.1 mph - N/A   Clear
11:54 PM 53.1 °F 42.1 °F 66% 29.97 in 10.0 mi WSW 4.6 mph - N/A   Clear